(140412) = 2001 TH83

Discovered at Socorro on 2001-10-14 by LINEAR.

Orbit

Orbit type: Main Belt

Note: WebGL enabled browser required.

epoch2023-09-13.0
epoch JD2460200.5
perihelion date2020-07-24.41589
perihelion JD2459054.91589
argument of perihelion (°)108.21660
ascending node (°)283.50713
inclination (°)4.88415
eccentricity0.0574648
perihelion distance (AU)2.6263866
Tisserand w.r.t. Jupiter3.3
ΔV w.r.t. Earth (km/sec)10.2
semimajor axis (AU)2.7865131
mean anomaly (°)242.73880
mean daily motion (°/day)0.21189090
aphelion distance (AU)2.947
period (years)4.65
P-vector [x]0.84723967
P-vector [y]0.44952505
P-vector [z]0.28304095
Q-vector [x]-0.52472027
Q-vector [y]0.79123469
Q-vector [z]0.31403234
absolute magnitude16.1
phase slope0.15
uncertainty0
referenceMPEC 2023-X132
observations used476
oppositions15
arc length (days)7928
first opposition used2001
last opposition used2023
residual rms (arc-secs)0.81
perturbers coarse indicatorM-v
perturbers precise indicator003Ek
first observation date used2001-09-10.0
last observation date used2023-05-26.0
computer nameMPCLINUX
JD of orbit computation2456406.195020
perihelion JD uncertainty (days)2.3945E-04
argument of perihelion uncertainty (°)7.4727E-05
ascending node uncertainty (°)5.8154E-05
inclination uncertainty (°)4.2657E-06
eccentricity uncertainty 4.5406E-08
perihelion distance uncertainty (AU)1.2609E-07
Minimum Orbit Intersection Distances (in AU)
for orbit epoch: 2460200.5, reference: E2023-XD2
Mercury2.29352
Venus1.9097
Earth1.63632
Mars1.12328
Jupiter2.32834
Saturn6.33484
Uranus15.5591
Neptune27.2296

Observations

486 total observations over interval: 2001 09 10.35765 – 2023 05 26.394065
These data are available for download (format description).

Date (UT) J2000 RA J2000 Dec Magn Location Ref
2001 09 10.35765 01 10 09.47 +15 23 53.3 19.9   704 – Lincoln Laboratory ETS, New Mexico MPS 44227
2001 09 10.37131 01 10 09.00 +15 23 52.6 20.2   704 – Lincoln Laboratory ETS, New Mexico MPS 44227
2001 09 10.38495 01 10 08.58 +15 23 51.0 20.2   704 – Lincoln Laboratory ETS, New Mexico MPS 44227
2001 09 25.25720 01 00 31.25 +14 50 30.5 19.1   704 – Lincoln Laboratory ETS, New Mexico MPS 49563
2001 09 25.27218 01 00 30.50 +14 50 28.4 19.5   704 – Lincoln Laboratory ETS, New Mexico MPS 49563
2001 09 25.28721 01 00 29.83 +14 50 24.3 19.5   704 – Lincoln Laboratory ETS, New Mexico MPS 49563
2001 09 25.30221 01 00 29.11 +14 50 21.8 20.2   704 – Lincoln Laboratory ETS, New Mexico MPS 49563
2001 09 25.31719 01 00 28.33 +14 50 18.1 19.4   704 – Lincoln Laboratory ETS, New Mexico MPS 49563
2001 09 28.40127 00 58 03.63 +14 38 39.8 19.5   644 – Palomar Mountain/NEAT MPS 44227
2001 09 28.42225 00 58 02.57 +14 38 34.8 19.7   644 – Palomar Mountain/NEAT MPS 44227
2001 09 28.44375 00 58 01.51 +14 38 29.6 19.8   644 – Palomar Mountain/NEAT MPS 44227
2001 10 13.20536 00 45 49.07 +13 26 04.8 19.0 R 699 – Lowell Observatory-LONEOS MPS 39485
2001 10 13.22886 00 45 47.92 +13 25 57.0   699 – Lowell Observatory-LONEOS MPS 39485
2001 10 13.25227 00 45 46.67 +13 25 49.4   699 – Lowell Observatory-LONEOS MPS 39485
2001 10 13.27568 00 45 45.52 +13 25 40.5   699 – Lowell Observatory-LONEOS MPS 39485
2001 10 14.17909 00 45 01.47 +13 20 37.8 20.0   704 – Lincoln Laboratory ETS, New Mexico MPS 39485
2001 10 14.19481 00 45 00.71 +13 20 32.0 20.1   704 – Lincoln Laboratory ETS, New Mexico MPS 39485
2001 10 14.22631 00 44 59.22 +13 20 19.7 19.9   704 – Lincoln Laboratory ETS, New Mexico MPS 39485
2001 10 14.24208 00 44 58.31 +13 20 15.5 19.6   704 – Lincoln Laboratory ETS, New Mexico MPS 39485
2001 10 15.44992 00 43 59.58 +13 13 23.4 20.2   608 – Haleakala-AMOS MPS 39485
2001 10 15.46038 00 43 59.07 +13 13 19.5 20.4   608 – Haleakala-AMOS MPS 39485
2001 10 15.47087 00 43 58.56 +13 13 16.0 20.2   608 – Haleakala-AMOS MPS 39485
2001 10 17.25986 00 42 33.55 +13 02 56.6 20.0   704 – Lincoln Laboratory ETS, New Mexico MPS 39485
2001 10 17.27584 00 42 32.79 +13 02 52.2 20.0   704 – Lincoln Laboratory ETS, New Mexico MPS 39485
2001 10 17.29182 00 42 32.00 +13 02 45.8 19.9   704 – Lincoln Laboratory ETS, New Mexico MPS 39485
2001 10 20.37990 00 40 09.97 +12 44 49.5 19.6   644 – Palomar Mountain/NEAT MPS 40842
2001 10 20.40125 00 40 08.98 +12 44 41.9 19.5   644 – Palomar Mountain/NEAT MPS 40842
2001 10 20.42249 00 40 08.06 +12 44 34.3 19.8   644 – Palomar Mountain/NEAT MPS 40842
2001 10 21.24498 00 39 31.72 +12 39 49.6 19.6   704 – Lincoln Laboratory ETS, New Mexico MPS 40842
2001 10 21.26114 00 39 30.99 +12 39 41.2 20.0   704 – Lincoln Laboratory ETS, New Mexico MPS 40842
2001 10 21.27733 00 39 30.27 +12 39 35.5 19.9   704 – Lincoln Laboratory ETS, New Mexico MPS 40842
2001 10 21.31201 00 39 28.68 +12 39 23.0 19.9   704 – Lincoln Laboratory ETS, New Mexico MPS 40842
2003 01 28.24945 08 22 51.39 +16 33 48.4 19.6 C 704 – Lincoln Laboratory ETS, New Mexico MPS 294217
2003 01 28.26502 08 22 50.49 +16 33 50.1 19.4 C 704 – Lincoln Laboratory ETS, New Mexico MPS 294217
2003 01 30.23126 08 20 59.31 +16 37 16.2 19.4   644 – Palomar Mountain/NEAT MPS 178273
2003 01 30.30351 08 20 55.12 +16 37 24.1 19.4   644 – Palomar Mountain/NEAT MPS 178273
2003 01 30.36894 08 20 51.33 +16 37 31.0 19.4   644 – Palomar Mountain/NEAT MPS 178273
2005 06 14.415637 20 54 42.480 -15 57 06.11 20.77 V 645 – Apache Point-Sloan Digital Sky Survey MPS 389982
2005 06 14.419109 20 54 42.433 -15 57 05.87 21.72   645 – Apache Point-Sloan Digital Sky Survey MPS 389982
2005 06 15.42964 20 54 31.24 -15 55 52.8 20.6 V G96 – Mt. Lemmon Survey MPS 138285
2005 06 15.43626 20 54 31.17 -15 55 52.5 20.9 V G96 – Mt. Lemmon Survey MPS 138285
2005 06 15.44232 20 54 31.06 -15 55 52.1 20.8 V G96 – Mt. Lemmon Survey MPS 138285
2005 06 15.44838 20 54 30.99 -15 55 51.5 20.7 V G96 – Mt. Lemmon Survey MPS 138285
2005 07 04.37183 20 46 30.07 -15 49 36.5 20.1 V G96 – Mt. Lemmon Survey MPS 137928
2005 07 04.37980 20 46 29.74 -15 49 36.9 19.9 V G96 – Mt. Lemmon Survey MPS 137928
2005 07 04.38774 20 46 29.38 -15 49 37.1 20.1 V G96 – Mt. Lemmon Survey MPS 137928
2005 07 04.39571 20 46 29.06 -15 49 37.4 19.9 V G96 – Mt. Lemmon Survey MPS 137928
2005 07 10.33188 20 42 22.53 -15 53 32.3 20.5 V 691 – Steward Observatory, Kitt Peak-Spacewatch MPS 137928
2005 07 10.34931 20 42 21.69 -15 53 33.1 20.5 V 691 – Steward Observatory, Kitt Peak-Spacewatch MPS 137928
2005 07 10.37018 20 42 20.71 -15 53 34.4 20.2 V 691 – Steward Observatory, Kitt Peak-Spacewatch MPS 137928
2005 07 15.38493 20 38 25.04 -15 58 35.7 19.9 V G96 – Mt. Lemmon Survey MPS 137928
2005 07 15.39456 20 38 24.54 -15 58 36.3 19.9 V G96 – Mt. Lemmon Survey MPS 137928
2005 07 15.40423 20 38 24.03 -15 58 36.9 20.0 V G96 – Mt. Lemmon Survey MPS 137928
2005 07 15.41389 20 38 23.56 -15 58 37.6 20.0 V G96 – Mt. Lemmon Survey MPS 137928
2006 10 19.43818 03 54 18.85 +26 24 25.9 20.2 V 691 – Steward Observatory, Kitt Peak-Spacewatch MPS 183925
2006 10 19.47973 03 54 17.53 +26 24 23.0 20.3 V 691 – Steward Observatory, Kitt Peak-Spacewatch MPS 183925
2006 10 19.49711 03 54 16.94 +26 24 22.0 20.5 V 691 – Steward Observatory, Kitt Peak-Spacewatch MPS 183925
2006 10 23.42631 03 52 04.08 +26 19 30.9 20.2 V 691 – Steward Observatory, Kitt Peak-Spacewatch MPS 183925
2006 10 23.44380 03 52 03.39 +26 19 29.3 20.1 V 691 – Steward Observatory, Kitt Peak-Spacewatch MPS 183925
2006 10 23.46130 03 52 02.71 +26 19 27.6 20.2 V 691 – Steward Observatory, Kitt Peak-Spacewatch MPS 183925
2006 10 27.34588 03 49 28.56 +26 12 37.9 19.0 V 703 – Catalina Sky Survey MPS 185280
2006 10 27.35234 03 49 28.20 +26 12 35.6 18.7 V 703 – Catalina Sky Survey MPS 185280
2006 10 27.35883 03 49 27.94 +26 12 34.4 18.6 V 703 – Catalina Sky Survey MPS 185280
2006 10 27.36527 03 49 27.84 +26 12 33.9 18.8 V 703 – Catalina Sky Survey MPS 185280
2006 10 27.43893 03 49 24.42 +26 12 26.5 20.8 V 691 – Steward Observatory, Kitt Peak-Spacewatch MPS 185280
2006 10 27.45636 03 49 23.63 +26 12 24.2 20.1 V 691 – Steward Observatory, Kitt Peak-Spacewatch MPS 185280
2006 10 27.47388 03 49 22.86 +26 12 22.0 20.1 V 691 – Steward Observatory, Kitt Peak-Spacewatch MPS 185280
2006 10 31.41395 03 46 25.31 +26 03 19.1   691 – Steward Observatory, Kitt Peak-Spacewatch MPS 185280
2006 10 31.43126 03 46 24.46 +26 03 16.3   691 – Steward Observatory, Kitt Peak-Spacewatch MPS 185280
2006 10 31.44865 03 46 23.59 +26 03 13.6   691 – Steward Observatory, Kitt Peak-Spacewatch MPS 185280
2006 11 09.38479 03 38 42.35 +25 35 09.4 19.2 R 644 – Palomar Mountain/NEAT MPS 190324
2006 11 09.40553 03 38 41.20 +25 35 05.1 20.1 R 644 – Palomar Mountain/NEAT MPS 190324
2006 11 09.42630 03 38 40.01 +25 35 00.1 19.4 R 644 – Palomar Mountain/NEAT MPS 190324
2006 11 11.18851 03 37 02.74 +25 28 18.1 19.6 V 691 – Steward Observatory, Kitt Peak-Spacewatch MPS 186813
2006 11 11.19846 03 37 02.16 +25 28 15.6 19.7 V 691 – Steward Observatory, Kitt Peak-Spacewatch MPS 186813
2006 11 11.20841 03 37 01.59 +25 28 13.7 19.7 V 691 – Steward Observatory, Kitt Peak-Spacewatch MPS 186813
2006 11 14.27841 03 34 08.18 +25 15 44.6 19.0 V 703 – Catalina Sky Survey MPS 186813
2006 11 14.28896 03 34 07.64 +25 15 40.1 19.1 V 703 – Catalina Sky Survey MPS 186813
2006 11 14.29949 03 34 06.99 +25 15 38.2 19.9 V 703 – Catalina Sky Survey MPS 186813
2006 11 14.31002 03 34 06.31 +25 15 35.0 19.1 V 703 – Catalina Sky Survey MPS 186813
2006 11 15.17086 03 33 17.69 +25 11 53.8 19.9 V 691 – Steward Observatory, Kitt Peak-Spacewatch MPS 186813
2006 11 15.18822 03 33 16.70 +25 11 49.6 19.8 V 691 – Steward Observatory, Kitt Peak-Spacewatch MPS 186813
2006 11 15.20557 03 33 15.66 +25 11 45.1 19.6 V 691 – Steward Observatory, Kitt Peak-Spacewatch MPS 186813
2006 11 15.23171 03 33 14.13 +25 11 38.7 19.6 V 691 – Steward Observatory, Kitt Peak-Spacewatch MPS 186813
2006 11 15.24163 03 33 13.54 +25 11 36.2 19.6 V 691 – Steward Observatory, Kitt Peak-Spacewatch MPS 186813
2006 11 15.25154 03 33 12.95 +25 11 33.8 19.6 V 691 – Steward Observatory, Kitt Peak-Spacewatch MPS 186813
